Flag for U.S.A. Weather past 2 weeks in Fort Myers, Florida, U.S.A.

Now
81 °F

Partly sunny.


Feels Like: 82 °F
Forecast: 65 / 82 °F
Wind: 6 mph from Northeast

Location: Page Field

Current Time: Mar 2, 2015 at 7:00:00 PM

Latest Report: Mar 2, 2015 at 5:53 PM


Visibility: 10 mi

Pressure: 30.16 "Hg

Humidity: 49%

Dew point: 60 °F

Location of Fort MyersLocation

Historic Weather in Fort Myers — Graph

°F

Fort Myers temperature yesterday

Maximum temperature yesterday: 84 °F (at 1:53 PM)
Minimum temperature yesterday: 68 °F (at 11:53 PM)
Average temperature yesterday: 74 °F

Past Weeks' High & Low Weather Summary

 TemperatureHumidityPressure
High84 °F (Feb 22, 1:53 PM)100% (Feb 23, 3:53 AM)30.39 "Hg (Feb 23, 3:53 AM)
Low35 °F (Feb 20, 6:53 AM)12% (Feb 20, 12:53 PM)29.76 "Hg (Feb 26, 5:04 AM)
Average65 °F75%30.13 "Hg
* Reported Feb 15 5:53 PM — Mar 2 5:53 PM, Fort Myers, Weather by CustomWeather, © 2015

Note: Actual official high and low records may vary slightly from our data, if they occured in-between our weather recording intervals... More about our weather records

Advertising

Fort Myers weather history for previous 24 hours

 ConditionsComfort  
Time TempWeatherWind HumidityBarometerVisibility
5:53 PM
Mon, Mar 2
81 °FPartly sunny.6 mph49%30.16 "Hg10 mi
4:53 PM83 °FBroken clouds.10 mph48%30.16 "Hg10 mi
3:53 PM83 °FMore clouds than sun.9 mph50%30.16 "Hg10 mi
2:53 PM84 °FPartly sunny.9 mph49%30.17 "Hg10 mi
1:53 PM84 °FPartly sunny.7 mph49%30.19 "Hg10 mi
12:53 PM82 °FPartly sunny.6 mph53%30.22 "Hg10 mi
11:53 AM81 °FScattered clouds.8 mph58%30.25 "Hg10 mi
10:53 AM78 °FScattered clouds.6 mph71%30.28 "Hg10 mi
9:53 AM73 °FPassing clouds.5 mph88%30.29 "Hg10 mi
9:01 AM69 °FPartly sunny.7 mph100%30.28 "Hg8 mi
7:53 AM67 °FFog.5 mph100%30.28 "Hg0 mi
6:53 AM66 °FFog.5 mph100%30.27 "Hg0 mi
5:59 AM64 °FFog.3 mph100%30.25 "Hg1 mi
4:58 AM65 °FFog.3 mph100%30.24 "Hg1 mi
3:53 AM66 °FFog.5 mph100%30.24 "Hg6 mi
2:53 AM66 °FClear.No wind96%30.24 "Hg9 mi
1:53 AM67 °FClear.No wind97%30.26 "Hg10 mi
12:53 AM68 °FClear.3 mph93%30.27 "Hg10 mi
11:53 PM
Sun, Mar 1
68 °FClear.3 mph93%30.29 "Hg10 mi
10:53 PM70 °FClear.6 mph90%30.29 "Hg10 mi
9:53 PM71 °FPassing clouds.5 mph90%30.29 "Hg10 mi
8:53 PM73 °FPassing clouds.No wind84%30.28 "Hg10 mi
7:53 PM75 °FLight rain. Overcast.5 mph82%30.26 "Hg10 mi
Weather by CustomWeather, © 2015

See weather overviewHow to use our weather pages